Location: Helion Bumpstead
(52.0500°N, 0.4000°E)
Time: 21:31:08
(UTC+00:00)

Cosmos 968 Rocket - Pass Details

Date: 15 November 2025
Orbit: 735 x 766 km, 74.0° (Epoch: 06 December)

Event Time Altitude Azimuth Distance (km) Brightness Sun altitude
Exits shadow 05:44:58 10° 327° (NNW) 2,288 5.6 -14.2°
Maximum altitude 05:50:00 53° 252° (WSW) 940 3.6 -13.5°
Drops below altitude 10° 05:55:04 10° 177° (S) 2,301 6.2 -12.7°
Sets 05:57:28 0° 172° (S) 3,222 7.0 -12.4°
